sat.trackr.live / text

‹ back to catalog

STARLINK-34979

NORAD 65254 · 2025-179V

PAYLOAD ACTIVE UNKNOWN

§ Identity

Operator
Country
US
Launch date
2025-08-18
Launch site
AFWTR
Launch vehicle
Mass (kg)
RCS (m²)

Purposes: comms

External: N2YO · Heavens-Above · Gunter

§ Orbital elements

Epoch: 2026-05-25T02:41:17.493792Z

Period
95.64 min
Inclination
97.4477°
Eccentricity
0.0001318
Mean motion
15.05660403 rev/d
Perigee alt
548.6 km
Apogee alt
550.4 km
Semi-major
6,927.6 km
B*
-3.7252e-5
RAAN
187.8633°
Arg perigee
93.6081°
Mean anomaly
266.5297°
Rev number
4,331

§ Raw data

STARLINK-349791 65254U 25179V   26145.11200803 -.00000596  00000+0 -37252-4 0  99932 65254  97.4477 187.8633 0001318  93.6081 266.5297 15.05660403 43316

JSON: /api/v1/satellites/65254 · /tle

For live sub-satellite position, see the globe view (requires WebGL).

§ Visibility from observer

Set your observer location to see the next 7 days of passes ≥ 10°. The values pass through the URL so the page stays shareable.

No JS? Fill the form by hand. The geolocation button needs JavaScript.